Regional Weather Roundup
Issued by NWS Huntsville, AL

Home | Current Version | Previous Version | Text Only | Print | Product List | Glossary On
Versions: 1 2 3 4 5 6 7 8 9 10 11 12 13 14 15 16 17 18 19 20 21 22 23 24 25 26 27
000
ASUS44 KHUN 251810
RWRHUN

WEATHER ROUNDUP FOR THE TENNESSEE VALLEY
NATIONAL WEATHER SERVICE HUNTSVILLE AL
100 PM CDT WED MAY 25 2016

ALZ001>004-251900-
NORTHWEST ALABAMA

CITY           SKY/WX    TMP DP  RH WIND       PRES   REMARKS
COURTLAND HCN    N/A     86 N/A N/A SW14        N/A
RUSSELLVILLE     N/A     86 N/A N/A MISG        N/A
SHOALS AIRPORT SUNNY     87  57  35 VRB7G16   30.16F
6HR MIN TEMP:  70; 6HR MAX TEMP:  88;

SHOALS TVA RES   N/A     86 N/A N/A MISG        N/A
$$

ALZ005>007-016-251900-
NORTH CENTRAL ALABAMA

CITY           SKY/WX    TMP DP  RH WIND       PRES   REMARKS
CULLMAN AG STN   N/A     82 N/A N/A SW7         N/A
DECATUR AP     SUNNY     86  59  39 S14G21    30.17F
6HR MIN TEMP:  67; 6HR MAX TEMP:  87; 6HR PCP: TRACE;

HUNTSVILLE AP  MOSUNNY   88  58  36 SW15      30.17F
6HR MIN TEMP:  69; 6HR MAX TEMP:  89;

HUN NWS/UAH      N/A     86  56  35 S9          N/A
MERIDIANVILLE  SUNNY     86  46  25 S13G18    30.18F
REDSTONE ARSN  MOSUNNY   85  60  42 SW13G22   30.17F
VINEMONT AP    FAIR      83  60  45 SE9       30.22F
$$

ALZ008>010-251900-
NORTHEAST ALABAMA

CITY           SKY/WX    TMP DP  RH WIND       PRES   REMARKS
ALBERTVILLE    MOSUNNY   84  66  54 S9        30.20F
FORT PAYNE     CLOUDY    82  52  34 SW10G17   30.20F
SCOTTSBORO AP  CLOUDY    84  61  45 SW8       30.20F
SCOTTSBORO HCN   N/A     84 N/A N/A MISG        N/A
VALLEY HEAD      N/A     81 N/A N/A MISG        N/A
$$

TNZ076-096-097-251900-
SOUTHEASTERN MIDDLE TENNESSEE

CITY           SKY/WX    TMP DP  RH WIND       PRES   REMARKS
TULLAHOMA      MOSUNNY   81  63  54 S9        30.20F
WINCHESTER     SUNNY     84  61  45 S10       30.20F
$$

...SURROUNDING SITES...

CITY           SKY/WX    TMP DP  RH WIND       PRES   REMARKS
ATLANTA        MOSUNNY   84  52  33 S8        30.23F
ANNISTON       SUNNY     86  53  32 S5        30.21F
BIRMINGHAM     PTSUNNY   86  55  34 S6        30.21F
CHATTANOOGA    CLOUDY    82  59  45 NW5       30.21F
DALTON         SUNNY     82  57  42 CALM      30.21F
GADSDEN        MOSUNNY   86  59  39 S10       30.20F
GOLDEN TRNGL   SUNNY     84  61  45 S12       30.14F
HALEYVILLE     FAIR      84  58  40 S15       30.19F
JACKSON TN     CLOUDY    80  71  74 SW8       30.10F
MEMPHIS        CLOUDY    82  72  71 SW7G18    30.11S
NASHVILLE      CLOUDY    82  62  50 S9        30.15F
OXFORD MS      FAIR      82  68  61 S6        30.13S
ROME           MOSUNNY   86  57  37 VRB6      30.20F
SAVANNAH       SUNNY     86  59  39 S10G17    30.11F
TUPELO         CLOUDY    86  53  32 SE12      30.12F
TUSCALOOSA     PTSUNNY   86  60  41 S10       30.17F
$$

...GULF COAST WEATHER...

CITY           SKY/WX    TMP DP  RH WIND       PRES   REMARKS
GULFPORT       PTSUNNY   83  69  62 SE14      30.17S
PASCAGOULA     PTSUNNY   82  67  60 S10       30.19R
MOBILE         PTSUNNY   84  61  45 SE14      30.20S
GULF SHORES    CLEAR     81  66  61 E8G20     30.19S
DESTIN         MOSUNNY   83  72  69 SE8       30.20S
PANAMA CITY    MOSUNNY   82  73  72 S14       30.19S
APPALACHICOLA  PTSUNNY   82  73  74 E12       30.19F
$$





USA.gov is the U.S. government's official web portal to all federal, state and local government web resources and services.